Погода Октябрьское

Погода Октябрьское : погода сейчас, прогноз погоды и архив. Всё, что Вы хотите узнать о погоде Октябрьское!

Поиск расширенной информации на нашем сайте:

Другие новости

Новости СМИ2

Главная страница сайта

Новости сайта

02.10.2013

Напоминаем, что на нашем новом сайте вы можете получить высокодетализированные прогнозы погоды по пунктам России, СНГ и мира (включающие важные для авиации метеовеличины, такие как направление и скорость ветра, видимость, явления погоды, количество и форма облачности, нижняя и верхняя граница облачности), а также ознакомиться с разнообразными материалами по авиационной метеорологии и подборкой полезных ссылок на эту тему.

Сайт Метеоцентр.Азия посвящён разработке технологий оптимизации авиаметеорологического обслуживания, включая проектирование и перспективное создание нескольких автоматизированных авиаметеорологических систем:
- система выпуска высокодетальных прогностических карт явлений погоды для нижнего воздушного пространства по России и ближнему зарубежью;
- система верификации прогнозов TAF (выпускаемых синоптиками официальных АМСГ РФ и ближнего зарубежья) и AUTOTAF (выпускаемых сайтом Метеоцентр.Азия) - выявление ошибок, онлайн-сопоставление с фактической погодой METAR, автоматическое внесение коррективов в прогнозы при резком отклонении фактической погоды от прогноза, подсчёт оправдываемости прогнозов по элементам и в целом;
- система обработки, анализа и отображения авиаметеорологической информации для применения провайдерами метеорологической информации.


Погода Октябрьское - сегодня

Время (UTC), дата Ветер
(°,м/с) 
Видим.   Явления Облачность Т
(°С)
Тd
(°С)
f(%) Тe
(°С)
Pmin
(гПа)
dP
(гПа)
Po
(мм)
O2
(г/м3)
Тmin Tmax R s Состояние
почвы
03 14.01.17 тихо ()   4000 м  слаб. снег  10/10 600 м 
[Ns]
-13.6 -14.9 90 -14  1023.3  0.6  760  324  -14.4    0.0  39  равномерный
сухой снег
100% 
06 14.01.17 120 (ЮВ) 4000 м  слаб. снег  10/10 600 м 
[Ns]
-13.5 -14.8 90 -13  1024.1  0.9  761  324           
09 14.01.17 130 (ЮВ) 4000 м  слаб. снег  10/0 средняя 
[As op]
-12.3 -13.6 90 -14  1024.6  0.5  761  322           
12 14.01.17 140 (ЮВ) 20000 м  {снег}  10/0 средняя 
[Ac As]
-11.8 -13.1 90 -14  1025  0.4  761  322           
15 14.01.17 130 (ЮВ) 20000 м    10/10 600 м 
[Sc]
-11.8 -13.1 90 -14  1025.1  0.1  762  322    -10.9  0.0     
18 14.01.17 120 (ЮВ) 4000 м  слаб. снег  10/9 600 м средняя 
[Sc|As op]
-12.6 -13.9 90 -15  1024.6  -0.5  761  323           
21 14.01.17 140 (ЮВ) 20000 м  {снег}  10/0 средняя 
[As op]
-12.3 -13.6 90 -16  1023.9  -0.7  761  322           
00 15.01.17 160 (Ю) 4000 м  слаб. снег  10/10 600 м 
[Ns]
-13 -14.3 90 -13  1023.5  -0.4  760  323           
03 15.01.17 тихо ()   4000 м  слаб. снег  10/10 600 м 
[Ns]
-12.9 -14.2 90 -13  1024.2  0.6  761  323  -13.8    0.4  40  равномерный
сухой снег
100% 
06 15.01.17 тихо ()   20000 м  {снег}  10/9 600 м верхняя 
[Sc|Ci fib]
-12.6 -13.9 90 -13  1025.1  762  323           
09 15.01.17 тихо ()   20000 м    10/0 верхняя 
[Ci fib]
-10.7 -12 90 -11  1025.5  0.5  762  321           
12 15.01.17 140 (ЮВ) 20000 м    10/0 верхняя 
[Ci fib]
-11.4 -12.7 90 -11  1026.3  0.7  762  322           
15 15.01.17 330 (СЗ) 20000 м    10/0 средняя 
[As op]
-14.1 -15.6 88 -14  1026.1  -0.3  762  325    -13.4       
18 15.01.17 140 (ЮВ) 20000 м    10/0 средняя 
[As op]
-11.7 -13 90 -12  1025.7  -0.5  762  322           
21 15.01.17 140 (ЮВ) 20000 м    10/0 средняя, верхняя 
[Ac trans|Ci fib]
-12.7 -14 90 -13  1025.8  0.1  762  323           
00 16.01.17 150 (ЮВ) 20000 м    10/0 средняя, верхняя 
[Ac trans|Ci fib]
-12.7 -10.2 100 -13  1025.8  -0.1  762  323           
03 16.01.17 тихо ()   20000 м    10/0 средняя, верхняя 
[Ac trans|Ci fib]
-14.5 -15.8 90 -15  1025.6  -0.1  762  326  -15.5      40  равномерный
сухой снег
100% 
06 16.01.17 тихо ()   10 км  [диам. изморози 1 мм]  10/0 средняя, верхняя 
[Ac trans|Cs]
-14.4 -15.7 90 -14  1025.9  0.2  762  326  -15.4         
09 16.01.17 тихо ()   10 км  [диам. изморози 1 мм]  9/9 1500 м 
[Sc]
-13.3 -14.6 90 -13  1026.4  0.5  762  324           
12 16.01.17 тихо ()   10 км  [диам. изморози 1 мм]  8/8 1500 м 
[Sc]
-13.4 -14.7 90 -13  1026.8  0.4  763  325           
15 16.01.17 тихо ()   10 км  [диам. изморози 1 мм]  10/0 верхняя 
[Cs]
-15.6 -16.9 90 -16  1026.9  763  327    -13.3       
18 16.01.17 тихо ()   20000 м  [диам. изморози 1 мм]  10/0 верхняя 
[Cs]
-15.2 -16.5 90 -15  1026.9  763  327           
21 16.01.17 тихо ()   20000 м  [диам. изморози 1 мм]  ясно 
-16.6 -17.9 90 -17  1027.2  0.2  763  329           
00 17.01.17 тихо ()   20000 м  [диам. изморози 1 мм]  ясно 
-17.4 -18.6 90 -17  1026.7  -0.4  763  330           
03 17.01.17 230 (ЮЗ) 20000 м  [диам. изморози 3 мм]  9/9 1500 м 
[Sc]
-13.6 -14.9 90 -14  1026.6  0.1  763  325  -17.9      40  равномерный
сухой снег
100% 
Время (UTC), дата Ветер
(°,м/с) 
Видим.   Явления Облачность Т
(°С)
Тd
(°С)
f(%) Тe
(°С)
Pmin
(гПа)
dP
(гПа)
Po
(мм)
O2
(г/м3)
Тmin Tmax R s Состояние
почвы

Для получения пояснительной информации подведите курсор к названию столбца.

ПОГОДА Октябрьское - архив

Всё, что Вы хотите узнать о погоде Октябрьское - удобно и подробно!

Выберите нужную дату (начиная с 1 января 2015* года) и нажмите кнопку "Найти".
Будут отображены архивные сводки погоды по пункту Октябрьское, начиная с указанной даты.


Отображать данные в формате CSV (для использования в таблицах Excel)


Внимание! Наш архив погоды предназначен исключительно для личного некоммерческого использования в познавательных целях. Если Вам необходимы официальные справки о состоянии погоды (для производственных, юридических, коммерческих и т.п. целей), обращайтесь в органы Росгидромета.

*Примечание: данная дата относится к архиву по метеостанциям СССР (Россия, СНГ, Балтия).
Архив по метеостанциям Зарубежной Европы и Азии (кроме Китая) хранится 10 дней, по другим регионам земного шара (Китай, Африка, Америка, Австралия, Океания) - 1 день.

Октябрьское - район местоположения метеостанции


Название, широта, долгота, высота метеостанции:
Октябрьское 62.4°ш. 66.1°д. 72 м над ур. моря [Российская Федерация]

Дополнительная информация

В oтличие oт бoльшинства пoгoдных сайтoв мы публикуем пoдрoбную метеoинфoрмацию в детальнoм прoфессиoнальнoм фoрмате.

Характеристики температуры и влажнoсти вoздуха измеряются на высoте 2 м в тени вдали oт зданий и деревьев.
Скoрoсть ветра измеряется на высoте 10 м (на урoвне рoста челoвека скoрoсть ветра ниже в 1.5-2 раза). Если метеoстанция нахoдится в гoрoде или в лесу, тo скoрoсть ветра занижена на 2-4 м/с пo сравнению с oткрытым местoм. Скoрoсть ветра над акватoриями крупных рек и oзёр, а также на вершинах хoлмoв на 2-5 м/с выше, чем в oбычных услoвиях.
Атмoсфернoе давление в разных тoчках местнoсти мoжет значительнo oтличаться oт давления на метеoстанции, в зависимoсти oт услoвий рельефа (при пoдъёме на 10 м давление пoнижается примернo на 1 мм рт.ст.).